Visibility
2.6 3.5 15.0 15.0 12.0 15.0 15.0 15.0 15.0 15.0 15.0 15.0 15.0 15.0 15.0 15.0 15.0 15.0 15.0 15.0 15.0 15.0
6.0 8.3 15.0 15.0 2.5 15.0 15.0 15.0 15.0 15.0 15.0 15.0 15.0 15.0 15.0 15.0 15.0 15.0 15.0 15.0 15.0 15.0
2.2 7.5 10.8 4.5 1.8 15.0 15.0 15.0 15.0 15.0 15.0 15.0 15.0 15.0 15.0 15.0 15.0 15.0 15.0 15.0 15.0 15.0
0.2 1.5 2.4 2.4 2.5 6.7 15.0 15.0 15.0 15.0 15.0 15.0 15.0 15.0 15.0 15.0 15.0 15.0 15.0 15.0 15.0 15.0
2.4 0.4 0.4 3.1 3.4 4.0 13.2 15.0 15.0 15.0 15.0 15.0 15.0 15.0 15.0 15.0 15.0 15.0 15.0 15.0 15.0 15.0
5.7 13.9 7.5 3.6 4.8 10.2 7.1 4.5 3.6 7.2 13.2 7.9 7.8 14.7 15.0 15.0 15.0 15.0 15.0 15.0 15.0 15.0
10.5 8.1 6.2 11.9 9.4 4.9 5.6 7.5 5.1 5.5 4.8 14.3 15.0 14.8 15.0 8.3 15.0 13.4 15.0 15.0 15.0 15.0
15.0 14.9 6.0 6.4 14.8 13.6 13.9 9.2 13.2 12.8 12.3 13.2 8.6 6.5 11.8 11.0 15.0 15.0 15.0 9.7 10.4 14.3
15.0 15.0 12.8 12.7 15.0 7.6 5.3 4.4 5.3 9.4 14.1 15.0 15.0 10.2 8.0 8.7 15.0 15.0 15.0 15.0 15.0 12.4
15.0 15.0 15.0 15.0 15.0 15.0 15.0 15.0 15.0 15.0 15.0 15.0 15.0 15.0 15.0 15.0 14.1 15.0 15.0 11.8 11.8 15.0
15.0 15.0 15.0 15.0 15.0 15.0 15.0 15.0 15.0 15.0 15.0 15.0 15.0 15.0 15.0 15.0 15.0 15.0 15.0 15.0 15.0 15.0
15.0 15.0 15.0 15.0 15.0 15.0 15.0 15.0 15.0 15.0 15.0 15.0 15.0 15.0 15.0 15.0 15.0 15.0 15.0 15.0 15.0 15.0
15.0 15.0 15.0 15.0 15.0 15.0 15.0 15.0 15.0 3.1 15.0 15.0 15.0 15.0 15.0 15.0 15.0 15.0 15.0 15.0 15.0 15.0
15.0 15.0 15.0 15.0 15.0 15.0 0.8 5.2 0.4 0.1 13.0 15.0 15.0 15.0 15.0 15.0 15.0 15.0 15.0 15.0 14.6 15.0